This is the latest recevied weather packets stored in our database for station/object W9WRP. If no packets are shown the sender has not sent any weather packets the latest 10 day(s).
| Time | Temp. | Humidity | Pressure | Rain* | Wind** | Luminosity | Snow |
|---|---|---|---|---|---|---|---|
| 1787491780 | 31.67° C | 28% | 1015 hPa | 0 mm | - | 17 W/m² | - |
| 1787491475 | 31.11° C | 29% | 1014.8 hPa | 0 mm | - | 14 W/m² | - |
| 1787491171 | 31.11° C | 29% | 1015 hPa | 0 mm | - | 11 W/m² | - |
| 1787490867 | 30.56° C | 29% | 1014.9 hPa | 0 mm | - | 9 W/m² | - |
| 1787490566 | 30.56° C | 30% | 1014.8 hPa | 0 mm | - | 7 W/m² | - |
| 1787490266 | 30.56° C | 29% | 1014.8 hPa | 0 mm | - | 5 W/m² | - |
| 1787489965 | 31.11° C | 29% | 1014.7 hPa | 0 mm | - | 3 W/m² | - |
| 1787489660 | 31.67° C | 28% | 1014.8 hPa | 0 mm | - | 2 W/m² | - |
| 1787489357 | 31.67° C | 28% | 1014.6 hPa | 0 mm | - | 1 W/m² | - |
| 1787489052 | 31.67° C | 28% | 1014.5 hPa | 0 mm | - | 0 W/m² | - |
| 1787488748 | 32.22° C | 28% | 1014.3 hPa | 0 mm | - | 0 W/m² | - |
| 1787488444 | 32.22° C | 27% | 1014.6 hPa | 0 mm | - | 0 W/m² | - |
| 1787488141 | 32.78° C | 27% | 1014.6 hPa | 0 mm | - | 0 W/m² | - |
| 1787487841 | 32.78° C | 27% | 1014.2 hPa | 0 mm | - | 0 W/m² | - |
| 1787487539 | 32.22° C | 27% | 1014.3 hPa | 0 mm | - | 0 W/m² | - |
| 1787487234 | 32.22° C | 28% | 1014.3 hPa | 0 mm | - | 0 W/m² | - |
| 1787486930 | 32.22° C | 28% | 1014.6 hPa | 0 mm | - | 0 W/m² | - |
| 1787486625 | 32.22° C | 28% | 1014.5 hPa | 0 mm | - | 0 W/m² | - |
| 1787486324 | 32.22° C | 28% | 1014.1 hPa | 0 mm | - | 0 W/m² | - |
| 1787486019 | 32.78° C | 27% | 1014.3 hPa | 0 mm | - | 0 W/m² | - |
| 1787485715 | 32.78° C | 27% | 1014.3 hPa | 0 mm | - | 0 W/m² | - |
| 1787485410 | 32.78° C | 27% | 1014 hPa | 0 mm | - | 0 W/m² | - |
| 1787485105 | 32.78° C | 27% | 1014.1 hPa | 0 mm | - | 0 W/m² | - |
| 1787484802 | 32.78° C | 27% | 1014.1 hPa | 0 mm | - | 0 W/m² | - |
| 1787484498 | 33.33° C | 27% | 1014.4 hPa | 0 mm | - | 0 W/m² | - |
* Rain latest hour (hover to see other rain measurements)
** Current wind speed in m/s (hover to see current wind gust speed)